Regional Weather Roundup
Issued by NWS

Home | Current Version | Previous Version | Text Only | Print | Product List | Glossary On
Versions: 1 2 3 4 5 6 7 8 9 10 11 12 13 14 15 16 17 18 19 20 21 22 23 24 25 26 27
000
ASUS42 KFFC 300303
RWRGA
WEATHER ROUNDUP FOR GEORGIA
NATIONAL WEATHER SERVICE PEACHTREE CITY GA
1100 PM EDT SUN MAY 29 2016

NOTE: "FAIR" INDICATES FEW OR NO CLOUDS BELOW 12,000 FEET WITH NO
SIGNIFICANT WEATHER AND/OR OBSTRUCTIONS TO VISIBILITY.

* = USE WITH CAUTION. THE STATIONS MARKED WITH AN ASTERISK MAY NOT
REPORT WEATHER SUCH AS PRECIPITATION, FOG, OR THUNDER AND ARE NOT
QUALITY CONTROLLED BY NWS.

THE REMARK "TC" DENOTES TEMPERATURE READING IN DEGREES CELSIUS.

GAZ001>058-300400-
NORTH GEORGIA

CITY           SKY/WX    TMP DP  RH WIND       PRES   REMARKS
ATLANTA        PTCLDY    74  62  66 E5        30.07R
ATHENS         MOCLDY    69  61  75 CALM      30.07R
CHAMBLEE       CLOUDY    74  63  68 S3        30.07R
ROME           PTCLDY    73  64  73 CALM      30.03R
WEST ATLANTA   CLOUDY    77  61  57 SE5       30.06R
GAINESVILLE    CLEAR     70  60  70 NE3       30.09S
CARTERSVILLE   PTCLDY    72  65  78 CALM      30.05R


CITY           SKY/WX    TMP DP  RH WIND       PRES   REMARKS
DALTON*        PTCLDY    72  64  78 CALM      30.04R
KENNESAW*      PTCLDY    75  63  64 CALM      30.03R
CANTON*        CLEAR     72  63  73 CALM      30.09R
BLAIRSVILLE*     N/A    N/A N/A N/A MISG      30.11S
$$

GAZ059>098-102>109-300400-
CENTRAL GEORGIA

CITY           SKY/WX    TMP DP  RH WIND       PRES   REMARKS
AUGUSTA-BUSH   CLOUDY    73  62  68 N12       30.00R
AUGUSTA-DANIEL CLOUDY    73  60  63 NW7       30.02R
COLUMBUS       CLEAR     80  63  55 CALM      30.03R
MACON          CLOUDY    74  64  71 CALM      30.05R
ROBINS AFB     CLOUDY    73  66  78 CALM      30.04R


CITY           SKY/WX    TMP DP  RH WIND       PRES   REMARKS
LAGRANGE*      PTCLDY    71  69  92 CALM      30.05R
SYLVANIA*      CLOUDY    71  67  88 NW8       30.00R
MILLEDGEVILLE* CLOUDY    70  63  78 CALM      30.05S
$$

GAZ099>101-110>166-300400-
SOUTH GEORGIA

CITY           SKY/WX    TMP DP  RH WIND       PRES   REMARKS
SAVANNAH       CLOUDY    71  63  75 W9        29.99R
VALDOSTA       PTCLDY    74  66  76 CALM      30.04R
ALMA           CLEAR     69  64  84 CALM      30.03R
ST SIMONS      PTCLDY    76  60  57 W3        30.01S
ALBANY         CLEAR     79  64  60 CALM      30.05R
BRUNSWICK      MOCLDY    77  64  65 W5        30.02S


CITY           SKY/WX    TMP DP  RH WIND       PRES   REMARKS
BAINBRIDGE*    CLEAR     77  66  69 CALM      30.03R
MOULTRIE*      CLEAR     77  64  65 CALM      30.05R
VIDALIA*       MOCLDY    75  59  57 NW3       30.02S
WAYCROSS*      CLEAR     70  64  81 CALM      30.03S
DOUGLAS*       MOCLDY    73  63  68 CALM      30.05S
$$




USA.gov is the U.S. government's official web portal to all federal, state and local government web resources and services.